HST
1 20580U 90037B   24138.80285684  .00009277  00000-0  44278-3 0  9996
2 20580  28.4675 188.6456 0002768  73.2263 286.8633 15.17339470672419
ISS (ZARYA)
1 25544U 98067A   24139.38688398  .00027809  00000-0  46772-3 0  9997
2 25544  51.6393 103.0830 0003363 180.5683 314.8310 15.51515061453923
CXO
1 25867U 99040B   24141.41825767  .00000654  00000-0  00000-0 0  9997
2 25867  40.5518 156.4184 8917274 294.5910 359.8498  0.37815615 14456